• en Belgique
  • Liste des pays
  • À 7 jours
  • Température de l'eau
  • Carte satellitaire
  • Carte météo
  • Widgets météo
  • user-avatar
    Se connecter

    Météo par heure à Blankenberge

    Ce jour, 19 Février, Lundi

    Heure Température Précipitation Vent Pression Humidité
    00:00 0°C° 0 mm 5 m/s 765 mmHg 75%
    01:00 0°C° 0 mm 5 m/s 765 mmHg 75%
    02:00 0°C° 0 mm 5 m/s 765 mmHg 74%
    03:00 0°C° 0 mm 5 m/s 764 mmHg 73%
    04:00 0°C° 0 mm 5 m/s 764 mmHg 73%
    05:00 0°C° 0 mm 5 m/s 764 mmHg 73%
    06:00 0°C° 0 mm 5 m/s 764 mmHg 73%
    07:00 0°C° 0,2 mm 5 m/s 763 mmHg 73%
    08:00 +1°C° 0,2 mm 5 m/s 763 mmHg 72%
    09:00 +1°C° 0,2 mm 5 m/s 763 mmHg 72%
    10:00 +2°C° 0,1 mm 5 m/s 763 mmHg 73%
    11:00 +2°C° 0,1 mm 5 m/s 762 mmHg 73%
    12:00 +3°C° 0,1 mm 5 m/s 762 mmHg 73%
    13:00 +3°C° 0,2 mm 5 m/s 762 mmHg 75%
    14:00 +4°C° 0,2 mm 4 m/s 762 mmHg 77%
    15:00 +4°C° 0,2 mm 4 m/s 761 mmHg 79%
    16:00 +4°C° 0,3 mm 4 m/s 761 mmHg 82%
    17:00 +4°C° 0,3 mm 4 m/s 761 mmHg 85%
    18:00 +4°C° 0,3 mm 3 m/s 761 mmHg 88%
    19:00 +4°C° 0,2 mm 3 m/s 761 mmHg 89%
    20:00 +4°C° 0,2 mm 3 m/s 761 mmHg 90%
    21:00 +4°C° 0,2 mm 3 m/s 761 mmHg 90%
    22:00 +4°C° 0,1 mm 3 m/s 761 mmHg 90%
    23:00 +3°C° 0,1 mm 3 m/s 761 mmHg 90%

    Demain, 20 Février, Mardi

    Heure Température Précipitation Vent Pression Humidité
    00:00 +3°C° 0,1 mm 4 m/s 761 mmHg 89%
    01:00 +3°C° 0 mm 3 m/s 762 mmHg 89%
    02:00 +3°C° 0 mm 3 m/s 762 mmHg 88%
    03:00 +2°C° 0 mm 3 m/s 762 mmHg 87%
    04:00 +2°C° 0 mm 3 m/s 762 mmHg 86%
    05:00 +2°C° 0 mm 3 m/s 762 mmHg 85%
    06:00 +2°C° 0 mm 3 m/s 762 mmHg 84%
    07:00 +2°C° 0,1 mm 3 m/s 762 mmHg 81%
    08:00 +2°C° 0,1 mm 3 m/s 763 mmHg 78%
    09:00 +3°C° 0,1 mm 3 m/s 763 mmHg 75%
    10:00 +3°C° 0,1 mm 3 m/s 763 mmHg 71%
    11:00 +5°C° 0,1 mm 2 m/s 763 mmHg 66%
    12:00 +5°C° 0,1 mm 2 m/s 763 mmHg 62%
    13:00 +5°C° 0,2 mm 2 m/s 763 mmHg 63%
    14:00 +6°C° 0,2 mm 2 m/s 763 mmHg 63%
    15:00 +6°C° 0,2 mm 2 m/s 763 mmHg 63%
    16:00 +4°C° 0,1 mm 3 m/s 764 mmHg 65%
    17:00 +4°C° 0,1 mm 3 m/s 764 mmHg 67%
    18:00 +3°C° 0,1 mm 4 m/s 765 mmHg 68%
    19:00 +2°C° 0 mm 5 m/s 765 mmHg 69%
    20:00 +1°C° 0 mm 5 m/s 766 mmHg 70%
    21:00 +1°C° 0 mm 5 m/s 767 mmHg 70%
    22:00 0°C° 0 mm 5 m/s 767 mmHg 71%
    23:00 0°C° 0 mm 5 m/s 768 mmHg 72%

    Après-demain, 21 Février, Mercredi

    Heure Température Précipitation Vent Pression Humidité
    00:00 -1°C° 0 mm 5 m/s 768 mmHg 73%
    01:00 -1°C° 0 mm 5 m/s 768 mmHg 74%
    02:00 -1°C° 0 mm 4 m/s 768 mmHg 76%
    03:00 -2°C° 0 mm 4 m/s 769 mmHg 77%
    04:00 -2°C° 0 mm 4 m/s 769 mmHg 78%
    05:00 -2°C° 0 mm 4 m/s 769 mmHg 78%
    06:00 -2°C° 0 mm 4 m/s 769 mmHg 79%
    07:00 -1°C° 0 mm 4 m/s 769 mmHg 75%
    08:00 0°C° 0 mm 4 m/s 769 mmHg 71%
    09:00 +1°C° 0 mm 4 m/s 769 mmHg 67%
    10:00 +3°C° 0 mm 4 m/s 769 mmHg 62%
    11:00 +4°C° 0 mm 4 m/s 769 mmHg 57%
    12:00 +5°C° 0 mm 4 m/s 769 mmHg 53%
    13:00 +5°C° 0 mm 5 m/s 768 mmHg 53%
    14:00 +5°C° 0 mm 5 m/s 768 mmHg 53%
    15:00 +5°C° 0 mm 5 m/s 768 mmHg 53%
    16:00 +3°C° 0 mm 5 m/s 768 mmHg 58%
    17:00 +2°C° 0 mm 5 m/s 767 mmHg 63%
    18:00 0°C° 0 mm 5 m/s 767 mmHg 68%
    19:00 0°C° 0 mm 5 m/s 767 mmHg 70%
    20:00 0°C° 0 mm 5 m/s 768 mmHg 71%
    21:00 -1°C° 0 mm 5 m/s 768 mmHg 72%
    22:00 -1°C° 0 mm 5 m/s 768 mmHg 73%
    23:00 -1°C° 0 mm 5 m/s 767 mmHg 73%

    22 Février, Jeudi

    Heure Température Précipitation Vent Pression Humidité
    00:00 -2°C° 0 mm 5 m/s 767 mmHg 74%
    01:00 -2°C° 0 mm 5 m/s 767 mmHg 74%
    02:00 -2°C° 0 mm 5 m/s 767 mmHg 74%
    03:00 -3°C° 0 mm 6 m/s 767 mmHg 74%
    04:00 -3°C° 0 mm 6 m/s 767 mmHg 73%
    05:00 -3°C° 0 mm 6 m/s 767 mmHg 73%
    06:00 -3°C° 0 mm 7 m/s 767 mmHg 72%
    07:00 -3°C° 0 mm 7 m/s 767 mmHg 68%
    08:00 -2°C° 0 mm 7 m/s 767 mmHg 64%
    09:00 -1°C° 0 mm 8 m/s 767 mmHg 60%
    10:00 0°C° 0 mm 8 m/s 767 mmHg 56%
    11:00 +1°C° 0 mm 8 m/s 767 mmHg 52%
    12:00 +2°C° 0 mm 8 m/s 767 mmHg 48%
    13:00 +2°C° 0 mm 8 m/s 766 mmHg 47%
    14:00 +2°C° 0 mm 8 m/s 766 mmHg 45%
    15:00 +2°C° 0 mm 8 m/s 766 mmHg 43%
    16:00 +1°C° 0 mm 8 m/s 766 mmHg 46%
    17:00 0°C° 0 mm 8 m/s 766 mmHg 49%
    18:00 -1°C° 0 mm 8 m/s 766 mmHg 52%
    19:00 -2°C° 0 mm 8 m/s 766 mmHg 55%
    20:00 -3°C° 0 mm 9 m/s 767 mmHg 58%
    21:00 -4°C° 0 mm 9 m/s 767 mmHg 61%
    22:00 -4°C° 0 mm 9 m/s 767 mmHg 63%
    23:00 -4°C° 0 mm 8 m/s 767 mmHg 65%

    23 Février, Vendredi

    Heure Température Précipitation Vent Pression Humidité
    00:00 -4°C° 0 mm 8 m/s 767 mmHg 67%
    01:00 -4°C° 0 mm 8 m/s 766 mmHg 69%
    02:00 -5°C° 0 mm 8 m/s 766 mmHg 71%
    03:00 -5°C° 0 mm 8 m/s 766 mmHg 73%
    04:00 -5°C° 0 mm 8 m/s 766 mmHg 74%
    05:00 -5°C° 0 mm 8 m/s 766 mmHg 74%
    06:00 -5°C° 0 mm 9 m/s 766 mmHg 75%
    07:00 -5°C° 0 mm 9 m/s 766 mmHg 70%
    08:00 -4°C° 0 mm 9 m/s 766 mmHg 65%
    09:00 -4°C° 0 mm 10 m/s 767 mmHg 61%
    10:00 -3°C° 0 mm 10 m/s 767 mmHg 55%
    11:00 -2°C° 0 mm 10 m/s 766 mmHg 50%
    12:00 0°C° 0 mm 9 m/s 766 mmHg 45%
    13:00 0°C° 0 mm 10 m/s 766 mmHg 44%
    14:00 +1°C° 0 mm 10 m/s 766 mmHg 42%
    15:00 +1°C° 0 mm 10 m/s 766 mmHg 41%
    16:00 0°C° 0 mm 9 m/s 766 mmHg 44%
    17:00 -1°C° 0 mm 9 m/s 766 mmHg 47%
    18:00 -3°C° 0 mm 9 m/s 766 mmHg 49%
    19:00 -4°C° 0 mm 9 m/s 767 mmHg 51%
    20:00 -4°C° 0 mm 9 m/s 767 mmHg 53%
    21:00 -4°C° 0 mm 9 m/s 768 mmHg 55%
    22:00 -5°C° 0 mm 9 m/s 768 mmHg 55%
    23:00 -5°C° 0 mm 9 m/s 768 mmHg 56%

    24 Février, Samedi

    Heure Température Précipitation Vent Pression Humidité
    00:00 -5°C° 0 mm 9 m/s 768 mmHg 56%
    01:00 -5°C° 0 mm 9 m/s 768 mmHg 55%
    02:00 -6°C° 0 mm 9 m/s 768 mmHg 53%
    03:00 -6°C° 0 mm 9 m/s 768 mmHg 51%
    04:00 -6°C° 0 mm 9 m/s 769 mmHg 49%
    05:00 -6°C° 0 mm 9 m/s 769 mmHg 47%
    06:00 -6°C° 0 mm 9 m/s 769 mmHg 45%
    07:00 -5°C° 0 mm 9 m/s 769 mmHg 41%
    08:00 -5°C° 0 mm 10 m/s 770 mmHg 36%
    09:00 -4°C° 0 mm 10 m/s 770 mmHg 32%
    10:00 -3°C° 0 mm 10 m/s 770 mmHg 31%
    11:00 -2°C° 0 mm 10 m/s 770 mmHg 30%
    12:00 0°C° 0 mm 10 m/s 770 mmHg 28%
    13:00 0°C° 0 mm 10 m/s 770 mmHg 30%
    14:00 +1°C° 0 mm 10 m/s 770 mmHg 31%
    15:00 +1°C° 0 mm 10 m/s 770 mmHg 33%
    16:00 0°C° 0 mm 10 m/s 770 mmHg 35%
    17:00 -2°C° 0 mm 10 m/s 770 mmHg 38%
    18:00 -3°C° 0 mm 10 m/s 771 mmHg 40%
    19:00 -4°C° 0 mm 10 m/s 771 mmHg 42%
    20:00 -4°C° 0 mm 10 m/s 771 mmHg 43%
    21:00 -5°C° 0 mm 10 m/s 772 mmHg 45%
    22:00 -5°C° 0 mm 10 m/s 772 mmHg 47%
    23:00 -5°C° 0 mm 10 m/s 772 mmHg 50%
    Voir plus